Flag for Israel Weather past 2 weeks in Rehovot, Israel

Now
102 °F

Sunny.


Feels Like: 99 °F
Forecast: 70 / 83 °F
Wind: 3 mph from North

Location: Ben Gurion International Airport

Current Time: May 27, 2015 at 8:13:47 PM

Latest Report: May 27, 2015 at 7:50 PM


Visibility: 10 mi

Pressure: 29.65 "Hg

Humidity: 17%

Dew point: 50 °F

Location of RehovotLocation

Historic Weather in Rehovot — Graph

°F

Rehovot temperature yesterday

Maximum temperature yesterday: 90 °F (at 11:20 AM)
Minimum temperature yesterday: 72 °F (at 4:50 AM)
Average temperature yesterday: 79 °F

Past Weeks' High & Low Weather Summary

 TemperatureHumidityPressure
High109 °F (May 27, 4:20 PM)83% (May 12, 11:50 PM)30.18 "Hg (May 12, 11:50 PM)
Low59 °F (May 16, 4:50 AM)6% (May 18, 12:20 PM)29.65 "Hg (May 27, 4:50 PM)
Average77 °F53%29.92 "Hg
* Reported May 12 6:20 PM — May 27 6:50 PM, Rehovot, Weather by CustomWeather, © 2015

Note: Actual official high and low records may vary slightly from our data, if they occured in-between our weather recording intervals... More about our weather records

Advertising

Rehovot weather history for previous 24 hours

 ConditionsComfort  
Time TempWeatherWind HumidityBarometerVisibility
6:50 PM
Wed, May 27
106 °FSunny.5 mph14%29.65 "Hg10 mi
6:20 PM108 °FSunny.5 mph13%29.65 "Hg10 mi
5:50 PM108 °FSunny.3 mph13%29.65 "Hg10 mi
5:20 PM109 °FSunny.3 mph12%29.65 "Hg10 mi
4:50 PM109 °FPassing clouds.7 mph12%29.65 "HgN/A
4:20 PM109 °FPassing clouds.8 mph13%29.68 "HgN/A
3:50 PM106 °FPassing clouds.7 mph14%29.68 "HgN/A
3:20 PM104 °FSunny.13 mph14%29.71 "Hg10 mi
2:50 PM106 °FSunny.13 mph14%29.71 "Hg10 mi
2:20 PM106 °FSunny.10 mph15%29.71 "Hg10 mi
1:50 PM104 °FSunny.8 mph16%29.71 "Hg10 mi
1:20 PM104 °FSunny.13 mph16%29.74 "Hg10 mi
12:50 PM106 °FPassing clouds.9 mph15%29.74 "HgN/A
12:20 PM106 °FSunny.10 mph13%29.74 "Hg10 mi
11:50 AM106 °FPassing clouds.8 mph13%29.77 "HgN/A
11:20 AM104 °FSunny.3 mph13%29.77 "Hg10 mi
10:50 AM100 °FSunny.6 mph15%29.77 "Hg10 mi
10:20 AM97 °FSunny.2 mph20%29.80 "Hg10 mi
9:50 AM93 °FSunny.1 mph24%29.80 "Hg10 mi
9:20 AM88 °FSunny.2 mph29%29.80 "Hg10 mi
8:50 AM84 °FSunny.1 mph31%29.83 "Hg10 mi
8:20 AM81 °FSunny.1 mph37%29.83 "Hg10 mi
7:50 AM77 °FSunny.2 mph42%29.83 "Hg10 mi
7:20 AM73 °FSunny.1 mph47%29.83 "Hg10 mi
6:20 AM66 °FClear.5 mph60%29.80 "Hg10 mi
5:50 AM70 °FClear.2 mph50%29.80 "Hg10 mi
5:20 AM70 °FClear.3 mph53%29.80 "Hg10 mi
4:50 AM72 °FClear.7 mph50%29.80 "Hg10 mi
4:20 AM70 °FClear.8 mph57%29.83 "Hg10 mi
3:50 AM70 °FClear.7 mph57%29.83 "Hg10 mi
3:20 AM70 °FClear.1 mph69%29.86 "Hg10 mi
2:50 AM70 °FClear.3 mph69%29.83 "Hg10 mi
2:20 AM70 °FClear.1 mph64%29.86 "Hg10 mi
1:50 AM70 °FClear.1 mph69%29.86 "Hg10 mi
1:20 AM70 °FClear.1 mph64%29.86 "Hg10 mi
12:20 AM72 °FClear.5 mph69%29.89 "Hg10 mi
11:50 PM
Tue, May 26
73 °FClear.3 mph65%29.89 "Hg10 mi
11:20 PM73 °FClear.2 mph65%29.89 "Hg10 mi
10:50 PM73 °FClear.5 mph61%29.92 "Hg10 mi
10:20 PM75 °FClear.7 mph57%29.92 "Hg10 mi
9:50 PM75 °FClear.7 mph57%29.92 "Hg10 mi
9:20 PM75 °FClear.7 mph57%29.92 "Hg10 mi
8:50 PM77 °FClear.8 mph51%29.89 "Hg10 mi
8:20 PM77 °FSunny.7 mph44%29.89 "Hg10 mi
Weather by CustomWeather, © 2015

See weather overviewHow to use our weather pages